{"data":{"norad_id":52155,"epoch":"2026-05-25T04:08:36.434688Z","epoch_age_seconds":56537,"freshness":"FRESH","line1":"1 52155U 22032C   26145.17264392  .00000908  00000+0  74427-4 0  9993","line2":"2 52155  97.5903 190.9514 0020880 236.0534 123.8706 15.01572651226823","mean_motion":15.01572651,"eccentricity":0.002088,"inclination_deg":97.5903,"raan_deg":190.9514,"arg_perigee_deg":236.0534,"mean_anomaly_deg":123.8706,"bstar":7.4427e-5,"rev_number":22682,"period_min":95.89945575001,"perigee_km":547.55520737989,"apogee_km":576.537412883,"semimajor_km":6940.1833101314,"source":"CELESTRAK","updated_at":"2026-05-25T13:37:57.648050Z"}}